FW2068 Weather Reports


Display with metric or nautical units.
time (UTC)temp
F
wind
direction
speed
MPH
gust
MPH
rain 1hr
in
rain 24hr
in
rain mn
in
humidity
%
barometer
mb
20260902044655 85 162 5.0 6.0 0.00 0.00 0.00 68 1015.2
20260902044151 85 151 5.0 7.0 0.00 0.00 0.00 68 1015.1
20260902043647 85 155 4.0 6.0 0.00 0.00 0.00 68 1015.2
20260902043142 85 140 2.0 6.0 0.00 0.00 0.00 68 1015.1
20260902042641 85 142 3.0 7.0 0.00 0.00 0.00 67 1015.0
20260902042137 85 143 5.0 8.0 0.00 0.00 0.00 66 1015.0
20260902041636 85 155 4.0 8.0 0.00 0.00 0.00 66 1014.9
20260902041131 86 156 6.0 9.0 0.00 0.00 0.00 65 1015.1
20260902040631 86 149 4.0 7.0 0.00 0.00 0.00 65 1014.9
20260902040126 86 164 7.0 9.0 0.00 0.00 0.00 64 1014.8
20260902035624 86 165 6.0 11.0 0.00 0.00 0.00 64 1015.0
20260902035120 86 158 7.0 10.0 0.00 0.00 0.00 63 1015.0
20260902034619 87 152 6.0 9.0 0.00 0.00 0.00 63 1015.0
20260902034118 87 172 5.0 9.0 0.00 0.00 0.00 62 1015.0
20260902033618 87 159 7.0 11.0 0.00 0.00 0.00 61 1015.1
20260902033113 87 154 8.0 11.0 0.00 0.00 0.00 61 1014.8
20260902032611 87 139 10.0 11.0 0.00 0.00 0.00 60 1014.9
20260902032107 88 130 6.0 11.0 0.00 0.00 0.00 59 1014.6
20260902031607 88 145 6.0 11.0 0.00 0.00 0.00 59 1014.7
20260902031103 89 139 12.0 14.0 0.00 0.00 0.00 57 1014.5
20260902030558 88 140 5.0 11.0 0.00 0.00 0.00 57 1014.6
20260902030057 89 110 2.0 4.0 0.00 0.00 0.00 57 1014.3
20260902025551 89 112 1.0 2.0 0.00 0.00 0.00 56 1014.0
20260902025047 89 122 1.0 1.0 0.00 0.00 0.00 56 1014.0
20260902024542 89 124 0.0 1.0 0.00 0.00 0.00 55 1013.9
20260902024042 90 126 1.0 1.0 0.00 0.00 0.00 55 1013.9
20260902023538 90 106 1.0 2.0 0.00 0.00 0.00 54 1013.5
20260902023033 90 84 0.0 2.0 0.00 0.00 0.00 54 1013.5
20260902022533 91 135 0.0 2.0 0.00 0.00 0.00 53 1013.4
20260902022029 91 107 0.0 2.0 0.00 0.00 0.00 54 1013.4
20260902021524 90 128 2.0 2.0 0.00 0.00 0.00 53 1013.3
20260902021019 90 128 0.0 2.0 0.00 0.00 0.00 54 1013.4
20260902020515 90 136 0.0 3.0 0.00 0.00 0.00 53 1013.3
20260902020011 90 110 1.0 3.0 0.00 0.00 0.00 53 1013.3
20260902015506 90 131 2.0 3.0 0.00 0.00 0.00 54 1013.2
20260902015001 91 141 2.0 2.0 0.00 0.00 0.00 53 1013.1
20260902014458 90 89 2.0 3.0 0.00 0.00 0.00 53 1013.1
20260902013958 90 115 2.0 3.0 0.00 0.00 0.00 53 1013.1
20260902013453 90 158 4.0 4.0 0.00 0.00 0.00 54 1012.9
20260902012948 91 129 2.0 3.0 0.00 0.00 0.00 52 1012.9
20260902012443 91 106 2.0 3.0 0.00 0.00 0.00 51 1012.9
20260902011939 92 89 0.0 2.0 0.00 0.00 0.00 50 1012.7
20260902011434 92 108 1.0 2.0 0.00 0.00 0.00 50 1012.7
20260902010933 92 89 1.0 2.0 0.00 0.00 0.00 50 1012.6
20260902010428 92 99 1.0 2.0 0.00 0.00 0.00 50 1012.7
20260902005927 92 111 1.0 2.0 0.00 0.00 0.00 50 1012.6
20260902005421 92 114 0.0 1.0 0.00 0.00 0.00 50 1012.6
20260902004918 92 154 0.0 1.0 0.00 0.00 0.00 50 1012.6
20260902004417 93 22 0.0 2.0 0.00 0.00 0.00 49 1012.7
20260902003913 93 135 2.0 4.0 0.00 0.00 0.00 50 1012.6
20260902003412 92 349 1.0 2.0 0.00 0.00 0.00 51 1012.7
20260902002909 92 232 2.0 4.0 0.00 0.00 0.00 50 1012.6
20260902002408 93 47 5.0 5.0 0.00 0.00 0.00 49 1012.6
20260902001903 96 109 0.0 8.0 0.00 0.00 0.00 47 1012.8
20260902001358 96 117 4.0 4.0 0.00 0.00 0.00 45 1012.7
20260902000848 96 127 1.0 2.0 0.00 0.00 0.00 44 1012.7
20260902000348 96 129 0.0 1.0 0.00 0.00 0.00 45 1012.8
20260901235843 96 139 0.0 1.0 0.00 0.00 0.00 46 1012.7
20260901235342 96 118 0.0 1.0 0.00 0.00 0.00 45 1012.8
20260901234838 96 141 0.0 2.0 0.00 0.00 0.00 45 1012.8
20260901234331 96 135 0.0 0.0 0.00 0.00 0.00 45 1012.8
20260901233827 96 143 2.0 2.0 0.00 0.00 0.00 45 1012.5
20260901233322 96 132 2.0 2.0 0.00 0.00 0.00 45 1012.8
20260901232818 96 129 0.0 3.0 0.00 0.00 0.00 45 1012.8
20260901232313 96 180 0.0 2.0 0.00 0.00 0.00 45 1012.9
20260901231809 96 118 2.0 4.0 0.00 0.00 0.00 44 1013.0
20260901231305 96 116 0.0 2.0 0.00 0.00 0.00 45 1012.9
20260901230801 96 82 2.0 3.0 0.00 0.00 0.00 44 1013.1
20260901230300 96 117 2.0 4.0 0.00 0.00 0.00 44 1012.9
20260901225756 97 101 3.0 3.0 0.00 0.00 0.00 43 1013.1
20260901225250 96 103 0.0 3.0 0.00 0.00 0.00 44 1013.1
20260901224746 96 148 3.0 5.0 0.00 0.00 0.00 46 1012.9
20260901224242 97 147 3.0 4.0 0.00 0.00 0.00 46 1013.0
20260901223738 97 128 4.0 5.0 0.00 0.00 0.00 43 1013.0
20260901223238 98 349 0.0 2.0 0.00 0.00 0.00 44 1013.0
20260901222734 97 308 1.0 2.0 0.00 0.00 0.00 44 1013.1
20260901222230 97 135 3.0 4.0 0.00 0.00 0.00 44 1013.2
20260901221726 96 149 1.0 3.0 0.00 0.00 0.00 45 1013.3
20260901221221 97 125 3.0 5.0 0.00 0.00 0.00 45 1013.1
20260901220720 97 150 2.0 6.0 0.00 0.00 0.00 45 1013.2
20260901220215 97 133 2.0 5.0 0.00 0.00 0.00 45 1013.2
20260901215713 97 129 1.0 6.0 0.00 0.00 0.00 45 1013.5
20260901215208 98 134 1.0 5.0 0.00 0.00 0.00 42 1013.2
20260901214706 101 108 2.0 3.0 0.00 0.00 0.00 41 1013.4
20260901214201 98 145 2.0 5.0 0.00 0.00 0.00 43 1013.5
20260901213701 97 118 4.0 4.0 0.00 0.00 0.00 44 1013.5
20260901213201 97 130 2.0 4.0 0.00 0.00 0.00 44 1013.5
20260901212700 97 131 1.0 6.0 0.00 0.00 0.00 44 1013.4
20260901212157 97 142 1.0 3.0 0.00 0.00 0.00 44 1013.6
20260901211656 97 174 3.0 4.0 0.00 0.00 0.00 44 1013.6
20260901211153 97 131 3.0 4.0 0.00 0.00 0.00 43 1013.5
20260901210648 97 134 2.0 7.0 0.00 0.00 0.00 44 1013.7
20260901210144 97 100 4.0 7.0 0.00 0.00 0.00 43 1013.9
20260901205640 97 118 1.0 8.0 0.00 0.00 0.00 44 1014.0
20260901205139 97 130 3.0 6.0 0.00 0.00 0.00 44 1013.9
20260901204635 97 140 2.0 3.0 0.00 0.00 0.00 44 1014.0
20260901204130 96 140 2.0 6.0 0.00 0.00 0.00 45 1013.9
20260901203626 97 186 0.0 1.0 0.00 0.00 0.00 43 1014.0
20260901203126 97 104 1.0 3.0 0.00 0.00 0.00 44 1014.1
20260901202625 97 120 1.0 4.0 0.00 0.00 0.00 44 1014.1
20260901202121 98 115 2.0 3.0 0.00 0.00 0.00 43 1014.2
20260901201617 97 136 3.0 7.0 0.00 0.00 0.00 44 1014.1
20260901201116 99 166 3.0 4.0 0.00 0.00 0.00 44 1014.0
20260901200616 98 176 3.0 5.0 0.00 0.00 0.00 43 1014.3
20260901200111 99 144 6.0 7.0 0.00 0.00 0.00 42 1014.4
20260901195609 100 254 3.0 4.0 0.00 0.00 0.00 41 1014.4
20260901195108 100 307 0.0 2.0 0.00 0.00 0.00 43 1014.3
20260901194604 98 269 0.0 4.0 0.00 0.00 0.00 44 1014.4
20260901194059 99 276 1.0 4.0 0.00 0.00 0.00 44 1014.5
20260901193554 98 230 2.0 4.0 0.00 0.00 0.00 48 1014.8
20260901193049 97 269 0.0 2.0 0.00 0.00 0.00 46 1014.7
20260901192544 96 138 1.0 3.0 0.00 0.00 0.00 46 1014.6
20260901192039 97 147 0.0 2.0 0.00 0.00 0.00 46 1014.7
20260901191535 96 81 0.0 4.0 0.00 0.00 0.00 46 1014.9
20260901191031 97 124 0.0 2.0 0.00 0.00 0.00 44 1014.9
20260901190527 96 339 2.0 3.0 0.00 0.00 0.00 45 1015.1
20260901190026 96 345 0.0 4.0 0.00 0.00 0.00 47 1015.0
20260901185524 97 197 0.0 3.0 0.00 0.00 0.00 46 1015.1
20260901185024 96 322 1.0 3.0 0.00 0.00 0.00 48 1015.1
20260901184519 97 269 2.0 3.0 0.00 0.00 0.00 46 1015.5
20260901184014 96 205 0.0 2.0 0.00 0.00 0.00 48 1015.5
20260901183509 95 116 2.0 4.0 0.00 0.00 0.00 48 1015.8
20260901183005 94 188 0.0 2.0 0.00 0.00 0.00 49 1015.8
20260901182501 95 335 1.0 1.0 0.00 0.00 0.00 48 1015.8
20260901182001 96 154 3.0 3.0 0.00 0.00 0.00 48 1015.9
20260901181500 96 296 3.0 3.0 0.00 0.00 0.00 48 1015.9
20260901180959 95 143 2.0 5.0 0.00 0.00 0.00 49 1016.1
20260901180458 95 128 2.0 4.0 0.00 0.00 0.00 49 1016.2
20260901175956 95 171 3.0 4.0 0.00 0.00 0.00 48 1016.3
20260901175452 97 168 1.0 3.0 0.00 0.00 0.00 50 1016.4
20260901174947 96 147 0.0 2.0 0.00 0.00 0.00 49 1016.4
20260901174442 96 100 1.0 5.0 0.00 0.00 0.00 48 1016.4
20260901173938 95 100 3.0 3.0 0.00 0.00 0.00 49 1016.5
20260901173433 95 146 0.0 3.0 0.00 0.00 0.00 49 1016.8
20260901172930 96 113 4.0 5.0 0.00 0.00 0.00 48 1016.8
20260901172425 99 278 1.0 2.0 0.00 0.00 0.00 47 1016.9
20260901171923 97 113 0.0 2.0 0.00 0.00 0.00 46 1016.8
20260901171421 95 107 2.0 5.0 0.00 0.00 0.00 49 1017.0
20260901170920 95 108 0.0 3.0 0.00 0.00 0.00 51 1017.1
20260901170416 95 203 2.0 3.0 0.00 0.00 0.00 51 1016.9
20260901165910 95 148 4.0 5.0 0.00 0.00 0.00 51 1017.0
20260901165409 94 98 5.0 7.0 0.00 0.00 0.00 50 1017.0
20260901164906 95 158 6.0 7.0 0.00 0.00 0.00 52 1017.0
20260901164401 94 149 2.0 4.0 0.00 0.00 0.00 53 1017.1
20260901163901 95 161 3.0 6.0 0.00 0.00 0.00 53 1017.2
20260901163356 93 170 1.0 5.0 0.00 0.00 0.00 54 1017.2
20260901162850 94 133 2.0 4.0 0.00 0.00 0.00 52 1017.2
20260901162350 93 240 2.0 4.0 0.00 0.00 0.00 54 1017.2
20260901161850 94 244 1.0 4.0 0.00 0.00 0.00 52 1017.4
20260901161344 92 126 1.0 2.0 0.00 0.00 0.00 55 1017.4
20260901160839 92 186 3.0 5.0 0.00 0.00 0.00 55 1017.3
20260901160336 92 157 0.0 2.0 0.00 0.00 0.00 56 1017.3
20260901155834 92 272 3.0 4.0 0.00 0.00 0.00 56 1017.2
20260901155329 92 252 2.0 3.0 0.00 0.00 0.00 57 1017.4
20260901154826 92 186 2.0 3.0 0.00 0.00 0.00 56 1017.3
20260901154325 91 158 3.0 5.0 0.00 0.00 0.00 56 1017.5
20260901153819 92 219 2.0 5.0 0.00 0.00 0.00 56 1017.3
20260901153320 91 260 2.0 4.0 0.00 0.00 0.00 57 1017.3
20260901152818 90 163 5.0 6.0 0.00 0.00 0.00 59 1017.6
20260901152318 91 218 4.0 4.0 0.00 0.00 0.00 59 1017.4
20260901151813 90 262 2.0 4.0 0.00 0.00 0.00 59 1017.4
20260901151308 90 150 5.0 11.0 0.00 0.00 0.00 59 1017.4
20260901150807 90 204 3.0 6.0 0.00 0.00 0.00 59 1017.2
20260901150305 89 220 3.0 4.0 0.00 0.00 0.00 60 1017.3
20260901145803 89 158 3.0 5.0 0.00 0.00 0.00 62 1017.5
20260901145306 89 271 3.0 5.0 0.00 0.00 0.00 63 1017.3
20260901144758 89 165 3.0 5.0 0.00 0.00 0.00 62 1017.3
20260901144254 88 235 1.0 3.0 0.00 0.00 0.00 63 1017.4
20260901143750 88 202 2.0 3.0 0.00 0.00 0.00 63 1017.7
20260901143246 88 175 0.0 3.0 0.00 0.00 0.00 65 1017.7
20260901142742 88 133 2.0 4.0 0.00 0.00 0.00 65 1017.7
20260901142241 87 173 3.0 5.0 0.00 0.00 0.00 66 1017.5
20260901141736 87 218 0.0 4.0 0.00 0.00 0.00 65 1017.5
20260901141236 87 145 4.0 4.0 0.00 0.00 0.00 65 1017.4
20260901140735 86 157 2.0 4.0 0.00 0.00 0.00 67 1017.5
20260901140234 86 162 3.0 3.0 0.00 0.00 0.00 67 1017.6
20260901135729 86 139 1.0 2.0 0.00 0.00 0.00 68 1017.6
20260901135229 86 170 0.0 2.0 0.00 0.00 0.00 68 1017.5
20260901134725 85 179 2.0 3.0 0.00 0.00 0.00 68 1017.6
20260901134225 84 175 1.0 3.0 0.00 0.00 0.00 69 1017.4
20260901133725 84 136 2.0 3.0 0.00 0.00 0.00 70 1017.5
20260901133224 85 143 2.0 2.0 0.00 0.00 0.00 68 1017.4
20260901132723 84 128 2.0 3.0 0.00 0.00 0.00 69 1017.6
20260901132218 83 151 2.0 3.0 0.00 0.00 0.00 71 1017.7
20260901131713 83 106 1.0 3.0 0.00 0.00 0.00 70 1017.5
20260901131212 83 142 1.0 3.0 0.00 0.00 0.00 71 1017.4
20260901130708 82 145 2.0 3.0 0.00 0.00 0.00 71 1017.4
20260901130206 82 95 0.0 2.0 0.00 0.00 0.00 72 1017.1
20260901125704 81 165 2.0 3.0 0.00 0.00 0.00 74 1017.0
20260901125200 80 113 0.0 1.0 0.00 0.00 0.00 76 1017.3
20260901124655 79 148 1.0 2.0 0.00 0.00 0.00 76 1017.0
20260901124154 79 116 0.0 2.0 0.00 0.00 0.00 76 1017.0
20260901123649 79 156 0.0 2.0 0.00 0.00 0.00 77 1017.0
20260901123149 79 113 0.0 1.0 0.00 0.00 0.00 77 1017.1
20260901122647 79 142 0.0 1.0 0.00 0.00 0.00 76 1016.8
20260901122142 79 62 0.0 2.0 0.00 0.00 0.00 76 1016.9
20260901121637 79 135 1.0 2.0 0.00 0.00 0.00 76 1016.9
20260901121133 79 135 2.0 3.0 0.00 0.00 0.00 75 1016.7
20260901120632 79 115 0.0 2.0 0.00 0.00 0.00 75 1016.7
20260901120127 79 106 1.0 2.0 0.00 0.00 0.00 75 1016.7
20260901115622 79 109 3.0 3.0 0.00 0.00 0.00 76 1016.5
20260901115119 79 142 2.0 3.0 0.00 0.00 0.00 76 1016.3
20260901114615 79 152 3.0 5.0 0.00 0.00 0.00 75 1016.3
20260901114114 80 129 3.0 4.0 0.00 0.00 0.00 75 1016.3
20260901113614 80 151 4.0 5.0 0.00 0.00 0.00 75 1016.3
20260901113109 80 145 2.0 4.0 0.00 0.00 0.00 75 1016.2
20260901112608 80 138 1.0 3.0 0.00 0.00 0.00 75 1016.1
20260901112103 80 172 1.0 2.0 0.00 0.00 0.00 75 1016.1
20260901111602 80 151 2.0 4.0 0.00 0.00 0.00 74 1016.2
20260901111101 80 172 2.0 3.0 0.00 0.00 0.00 74 1016.2
20260901110557 80 148 2.0 4.0 0.00 0.00 0.00 74 1016.2
20260901110052 80 158 2.0 4.0 0.00 0.00 0.00 73 1016.2
20260901105549 80 150 3.0 4.0 0.00 0.00 0.00 73 1016.0
20260901105048 80 163 3.0 3.0 0.00 0.00 0.00 73 1016.2
20260901104544 80 146 2.0 3.0 0.00 0.00 0.00 73 1016.1
20260901104039 80 147 2.0 3.0 0.00 0.00 0.00 72 1016.0
20260901103533 80 141 2.0 2.0 0.00 0.00 0.00 72 1016.0
20260901103030 80 150 2.0 2.0 0.00 0.00 0.00 72 1016.1
20260901102529 80 153 2.0 3.0 0.00 0.00 0.00 71 1016.3
20260901102024 80 162 1.0 2.0 0.00 0.00 0.00 71 1015.9
20260901101520 80 151 2.0 2.0 0.00 0.00 0.00 71 1016.0
20260901101020 80 159 2.0 2.0 0.00 0.00 0.00 71 1016.1
20260901100519 80 136 1.0 3.0 0.00 0.00 0.00 70 1016.2
20260901100019 80 143 2.0 4.0 0.00 0.00 0.00 70 1016.0
20260901095517 81 161 1.0 3.0 0.00 0.00 0.00 70 1016.0
20260901095016 81 148 2.0 4.0 0.00 0.00 0.00 69 1016.0
20260901094516 81 164 3.0 5.0 0.00 0.00 0.00 69 1016.3
20260901094016 81 154 3.0 5.0 0.00 0.00 0.00 68 1016.1
20260901093510 81 154 4.0 5.0 0.00 0.00 0.00 68 1016.2
20260901093005 81 137 4.0 6.0 0.00 0.00 0.00 68 1016.2
20260901092501 81 152 3.0 6.0 0.00 0.00 0.00 67 1016.3
20260901091957 81 139 4.0 6.0 0.00 0.00 0.00 67 1016.4
20260901091452 82 143 5.0 7.0 0.00 0.00 0.00 66 1016.2
20260901090946 82 117 2.0 6.0 0.00 0.00 0.00 66 1016.2
20260901090446 82 147 3.0 9.0 0.00 0.00 0.00 66 1016.2
20260901085942 82 127 2.0 5.0 0.00 0.00 0.00 66 1016.0
20260901085437 82 143 6.0 6.0 0.00 0.00 0.00 65 1015.9
20260901084934 82 132 4.0 5.0 0.00 0.00 0.00 65 1016.1
20260901084430 82 136 2.0 6.0 0.00 0.00 0.00 65 1016.1
20260901083926 82 126 4.0 7.0 0.00 0.00 0.00 64 1016.2
20260901083425 82 147 5.0 7.0 0.00 0.00 0.00 64 1016.0
20260901082924 82 144 4.0 6.0 0.00 0.00 0.00 65 1015.9
20260901082419 82 126 2.0 5.0 0.00 0.00 0.00 64 1015.9
20260901081914 83 117 2.0 5.0 0.00 0.00 0.00 63 1015.9
20260901081409 83 132 3.0 5.0 0.00 0.00 0.00 63 1016.0
20260901080909 83 149 4.0 6.0 0.00 0.00 0.00 63 1015.9
20260901080403 83 121 1.0 8.0 0.00 0.00 0.00 63 1015.9
20260901075858 83 137 1.0 5.0 0.00 0.00 0.00 62 1015.9
20260901075353 83 140 3.0 4.0 0.00 0.00 0.00 62 1015.7
20260901074847 83 137 1.0 5.0 0.00 0.00 0.00 62 1016.0
20260901074342 83 150 3.0 5.0 0.00 0.00 0.00 62 1015.8
20260901073837 83 143 4.0 5.0 0.00 0.00 0.00 62 1015.9
20260901073333 83 145 3.0 5.0 0.00 0.00 0.00 61 1015.9
20260901072829 84 131 3.0 5.0 0.00 0.00 0.00 61 1015.9
20260901072328 84 141 6.0 6.0 0.00 0.00 0.00 60 1015.8
20260901071824 84 116 2.0 6.0 0.00 0.00 0.00 60 1015.6
20260901071322 84 149 3.0 6.0 0.00 0.00 0.00 60 1015.7
20260901070821 84 133 5.0 7.0 0.00 0.00 0.00 60 1015.7
20260901070317 84 138 2.0 6.0 0.00 0.00 0.00 60 1015.8
20260901065816 84 145 2.0 4.0 0.00 0.00 0.00 60 1015.7
20260901065311 84 138 5.0 6.0 0.00 0.00 0.00 59 1015.6
20260901064807 84 138 4.0 4.0 0.00 0.00 0.00 59 1015.7
20260901064303 85 134 3.0 5.0 0.00 0.00 0.00 59 1015.7
20260901063801 85 101 0.0 5.0 0.00 0.00 0.00 58 1015.7
20260901063256 84 117 2.0 4.0 0.00 0.00 0.00 59 1015.7
20260901062752 84 136 2.0 3.0 0.00 0.00 0.00 59 1015.6
20260901062248 84 143 4.0 4.0 0.00 0.00 0.00 58 1015.7
20260901061743 84 108 0.0 4.0 0.00 0.00 0.00 58 1015.6
20260901061243 85 148 2.0 4.0 0.00 0.00 0.00 58 1015.5
20260901060738 85 132 2.0 3.0 0.00 0.00 0.00 57 1015.3
20260901060234 85 136 2.0 5.0 0.00 0.00 0.00 57 1015.3
20260901055735 85 138 1.0 5.0 0.00 0.00 0.00 57 1015.5
20260901055231 85 115 3.0 4.0 0.00 0.00 0.00 57 1015.4
20260901054728 85 126 1.0 3.0 0.00 0.00 0.00 57 1015.2
20260901054224 85 92 2.0 4.0 0.00 0.00 0.00 57 1014.9
20260901053720 85 113 2.0 3.0 0.00 0.00 0.00 56 1015.1
20260901053215 85 132 2.0 3.0 0.00 0.00 0.00 56 1015.0
20260901052710 85 148 3.0 3.0 0.00 0.00 0.00 56 1014.9
20260901052206 85 118 2.0 3.0 0.00 0.00 0.00 55 1015.0
20260901051705 86 110 3.0 5.0 0.00 0.00 0.00 55 1015.1
20260901051205 86 110 2.0 5.0 0.00 0.00 0.00 55 1015.0
20260901050700 86 161 1.0 5.0 0.00 0.00 0.00 54 1014.8
20260901050155 86 116 3.0 4.0 0.00 0.00 0.00 54 1014.9
20260901045655 86 125 3.0 5.0 0.00 0.00 0.00 53 1015.0
20260901045150 86 119 2.0 4.0 0.00 0.00 0.00 54 1014.8